,Date,Temp_min,Temp_max,Temp_moy,Pluie,Humidite,Pression
0,2018-01-09,5.5,8.3,6.7375,0.0,90.375,1007.9125
1,2018-01-10,6.8,9.6,8.16,2.0,88.52,1006.9680000000002
2,2018-01-11,5.6,8.6,7.207999999999999,0.0,91.04,1014.34
3,2018-01-12,5.4,6.9,6.095833333333334,0.0,89.75,1023.9791666666666
4,2018-01-13,4.0,6.1,5.104166666666667,0.0,85.95833333333333,1018.675
5,2018-01-14,3.3,8.5,5.195833333333334,0.0,83.375,1016.0125000000002
6,2018-01-15,5.1,10.4,7.270833333333333,8.6,88.625,1007.5875
7,2018-01-16,4.2,10.2,8.075,5.2,81.29166666666667,1000.3333333333334
8,2018-01-17,3.5,8.4,5.912499999999999,2.2,75.45833333333333,1009.2
9,2018-01-18,6.5,11.3,9.208333333333334,8.2,84.75,1005.8166666666666
10,2018-01-19,4.8,7.1,5.791304347826086,2.4,82.1304347826087,1011.5130434782612
11,2018-01-20,4.3,11.6,7.633333333333334,6.8,89.125,1003.3833333333332
12,2018-01-21,6.1,11.3,7.656000000000001,6.2,87.8,1012.52
13,2018-01-22,9.5,13.0,11.137499999999998,14.8,87.04166666666667,1012.7375
14,2018-01-23,7.7,12.3,9.8375,0.2,86.16666666666667,1022.2041666666668
15,2018-01-24,11.1,13.2,12.129166666666665,0.0,84.625,1016.4875
16,2018-01-25,7.9,11.3,9.133333333333333,5.6,90.29166666666669,1012.2041666666668
17,2018-01-26,6.2,9.6,7.858333333333333,0.0,85.125,1018.0208333333334
18,2018-01-27,4.5,7.1,5.4125000000000005,0.0,90.625,1030.4791666666667
19,2018-01-28,5.0,11.2,8.691666666666668,0.6,91.33333333333331,1034.6416666666669
20,2018-01-29,9.5,10.9,10.425,0.0,84.375,1031.8
21,2018-01-30,9.1,11.1,9.991666666666667,0.0,89.95833333333333,1027.2958333333331
22,2018-01-31,5.0,9.4,8.2875,10.0,87.125,1011.1791666666668
23,2018-02-01,3.4,7.6,5.1160000000000005,1.2,78.36,1004.036
24,2018-02-02,3.8,6.4,5.004166666666666,0.4,82.04166666666667,1008.4041666666666
25,2018-02-03,3.9,5.0,4.5625,1.6,87.5,1006.8291666666664
26,2018-02-04,0.4,4.4,2.4916666666666667,3.0,82.29166666666667,1015.7833333333334
27,2018-02-05,-1.1,1.6,0.1291666666666666,0.2,87.0,1018.6124999999998
28,2018-02-06,-1.0,0.8,-0.2375,0.6,94.75,1010.2916666666666
29,2018-02-07,-1.8,-0.2,-0.9708333333333332,0.0,90.125,1014.8166666666666
30,2018-02-08,-1.2,4.4,1.0916666666666666,2.0,74.25,1019.6916666666666
31,2018-02-09,-2.8,2.7,-0.0916666666666666,3.0,87.875,1013.6708333333332
32,2018-02-10,1.6,6.0,3.333333333333333,0.6,78.29166666666667,1016.4125
33,2018-02-11,2.3,8.1,4.9,3.6,85.08,1007.22
34,2018-02-12,1.6,6.7,3.575,0.2,75.83333333333333,1016.15
35,2018-02-13,-0.3,4.1,1.7833333333333332,0.4,80.29166666666667,1008.3583333333332
36,2018-02-14,0.4,5.1,2.8083333333333336,0.4,90.125,1010.3333333333334
37,2018-02-15,4.3,11.2,8.424999999999999,9.0,90.75,1012.6208333333334
38,2018-02-16,5.2,9.7,7.4375,0.0,70.875,1023.8458333333332
39,2018-02-17,5.1,9.4,6.75,0.0,72.75,1019.9958333333334
40,2018-02-18,1.1,8.2,4.7,0.0,83.08333333333333,1022.6083333333332
41,2018-02-19,1.2,5.8,3.6875,2.6,89.95833333333333,1017.1791666666668
42,2018-02-20,3.6,6.9,4.737931034482759,0.2,87.17241379310344,1015.906896551724
43,2018-02-21,0.4,4.7,2.756,0.0,78.0,1020.112
44,2018-02-22,-1.0,4.9,1.5708333333333335,0.0,70.0,1017.1208333333334
45,2018-02-23,-1.5,4.0,1.2041666666666666,0.0,61.79166666666666,1014.6833333333334
46,2018-02-24,-0.9,6.3,2.275,0.0,53.54166666666666,1014.7083333333334
47,2018-02-25,-1.8,2.9,0.3625,0.0,49.375,1020.3458333333334
48,2018-02-26,-3.8,-0.6,-2.404166666666667,0.0,52.083333333333336,1022.2875
49,2018-02-27,-5.8,-1.8,-3.7875,0.0,63.458333333333336,1017.8333333333334
50,2018-02-28,-6.7,-1.3,-4.247058823529412,0.0,50.1764705882353,1011.5647058823528
51,2018-03-01,-0.8999999999999999,2.5,0.7164705882352944,0.5,61.788235294117655,1002.1023529411764
52,2018-03-02,4.9,6.3,5.680000000000001,1.0,73.4,992.64
53,2018-03-03,3.4,10.6,6.533333333333334,0.0,75.33333333333333,991.2583333333332
54,2018-03-04,5.0,8.3,6.412000000000001,6.0,88.08,992.0040000000002
55,2018-03-05,5.5,12.4,9.045833333333333,0.0,76.04166666666667,990.3833333333332
56,2018-03-06,6.9,11.1,8.479166666666666,0.2,79.75,989.3541666666666
57,2018-03-07,4.2,9.2,6.854166666666667,9.2,83.41666666666667,995.4333333333334
58,2018-03-08,4.7,10.0,6.891666666666667,2.0,84.54166666666667,1002.1833333333334
59,2018-03-09,6.8,13.9,10.554166666666667,0.6,79.875,1003.0166666666668
60,2018-03-10,10.7,16.8,13.833333333333334,3.6,81.04166666666667,997.4833333333332
61,2018-03-11,10.9,17.4,13.675999999999998,9.8,73.92,991.368
62,2018-03-12,8.9,12.3,10.845833333333331,2.0,76.0,992.85
63,2018-03-13,8.1,12.1,9.791666666666666,0.4,75.29166666666667,1006.7416666666668
64,2018-03-14,5.1,13.6,10.045833333333334,0.0,68.5,1004.0625
65,2018-03-15,8.8,13.3,10.433333333333335,6.8,79.625,991.2291666666666
66,2018-03-16,7.7,12.9,9.883333333333333,0.4,77.375,999.3833333333332
67,2018-03-17,0.7,9.1,4.666666666666667,7.8,88.125,997.7374999999998
68,2018-03-18,-0.9,1.7,0.2125,1.4,85.33333333333333,1002.3916666666668
69,2018-03-19,-1.3,1.5,0.0874999999999999,0.4,85.45833333333333,1008.0166666666668
70,2018-03-20,-1.2,7.4,3.125,0.4,64.58333333333333,1020.6166666666668
71,2018-03-21,1.4,7.3,4.2,0.0,71.96,1028.7
72,2018-03-22,3.4,8.1,6.031818181818181,0.0,74.77272727272727,1020.368181818182
73,2018-03-23,5.1,6.7,5.9875,0.0,78.625,1005.8541666666666
74,2018-03-24,6.1,13.3,9.595833333333331,0.0,69.66666666666667,997.8291666666668
75,2018-03-25,8.8,14.8,11.387499999999998,0.0,61.04166666666666,1006.2208333333332
76,2018-03-26,7.1,12.7,10.083333333333334,0.0,59.41666666666666,1015.4458333333332
77,2018-03-27,5.8,12.8,9.395833333333334,6.8,79.95833333333333,1010.4166666666666
78,2018-03-28,6.3,13.6,8.950000000000001,9.8,79.75,1004.6791666666668
79,2018-03-29,4.9,11.5,7.787499999999999,1.8,74.04166666666667,1004.3291666666668
80,2018-03-30,6.4,9.9,8.3125,0.8,75.95833333333333,995.9541666666668
81,2018-03-31,5.8,10.6,7.979166666666667,0.0,75.29166666666667,999.1083333333332
82,2018-04-01,6.6,11.0,8.56,0.0,70.0,1010.276
83,2018-04-02,7.9,15.7,11.641666666666666,0.0,63.833333333333336,1002.6125
84,2018-04-03,8.8,14.6,11.8375,3.4,77.16666666666667,999.0208333333334
85,2018-04-04,8.6,13.4,10.879166666666668,4.8,81.04166666666667,999.4083333333334
86,2018-04-05,7.6,10.8,9.220833333333331,0.2,66.54166666666667,1014.4291666666668
87,2018-04-06,6.4,19.1,12.816666666666668,0.0,60.958333333333336,1011.0083333333332
88,2018-04-07,11.8,20.6,16.275,0.0,63.833333333333336,1006.05
89,2018-04-08,12.3,22.2,16.599999999999998,0.0,63.625,1004.6875
90,2018-04-09,11.4,15.7,13.329166666666666,8.0,81.70833333333333,1003.7166666666668
91,2018-04-10,10.8,16.1,12.970833333333331,0.2,72.70833333333333,998.9
92,2018-04-11,8.9,18.9,14.196000000000002,0.0,57.52,1002.044
93,2018-04-12,10.1,14.1,11.825,2.4,81.95833333333333,998.6875
94,2018-04-13,9.6,17.6,13.8,0.0,75.41666666666667,1006.5708333333332
95,2018-04-14,11.1,16.3,13.695833333333333,0.0,75.54166666666667,1014.4541666666668
96,2018-04-15,10.7,17.1,14.200000000000005,0.0,72.20833333333333,1010.8625
97,2018-04-16,10.1,16.7,13.491666666666664,0.0,63.958333333333336,1015.5166666666668
98,2018-04-17,9.8,21.8,16.40833333333333,0.0,55.875,1022.8958333333334
99,2018-04-18,14.0,26.0,20.604166666666668,0.0,47.583333333333336,1025.1875
100,2018-04-19,15.7,27.6,22.212499999999995,0.0,46.91666666666666,1022.05
101,2018-04-20,17.7,28.7,23.5375,0.0,47.958333333333336,1020.6875
102,2018-04-21,17.4,27.5,22.832000000000004,0.0,46.4,1017.0519999999998
103,2018-04-22,17.9,26.3,22.02083333333333,6.4,54.458333333333336,1010.8541666666666
104,2018-04-23,12.9,18.8,16.022222222222226,0.0,63.77777777777778,1016.0444444444446
105,2018-04-24,16.4,20.2,18.872727272727275,0.0,53.72727272727273,1013.4
106,2018-04-25,10.9,16.2,13.908333333333331,0.0,67.20833333333333,1014.15
107,2018-04-26,8.4,15.6,12.15,0.0,58.0,1018.1958333333332
108,2018-04-27,9.8,18.3,14.154166666666669,0.0,54.41666666666666,1008.4083333333332
109,2018-04-28,10.9,15.1,13.151851851851855,0.0,64.66666666666667,1009.2648148148148
110,2018-04-29,9.7,12.2,10.77777777777778,8.8,88.0625,1002.1736111111112
111,2018-04-30,5.1,10.2,6.318181818181818,15.6,89.81818181818181,1002.1895104895108
112,2018-05-01,5.3,13.1,9.339634146341462,0.2,68.40853658536585,1012.1615853658536
113,2018-05-02,6.6,16.2,11.76388888888889,0.0,63.6875,1010.6243055555556
114,2018-05-03,8.0,16.4,12.429370629370627,0.0,62.09090909090909,1016.7104895104897
115,2018-05-04,8.8,18.8,14.112587412587413,0.0,56.11188811188811,1019.758041958042
116,2018-05-05,10.3,23.7,17.373611111111114,0.0,59.66666666666666,1019.1423611111112
117,2018-05-06,14.2,27.1,21.43916083916084,0.0,55.41258741258741,1017.190909090909
118,2018-05-07,17.3,26.1,22.42394366197183,0.0,43.056338028169016,1013.5042253521124
119,2018-05-08,13.8,27.6,21.62708333333333,0.0,49.25,1007.5395833333334
120,2018-05-09,12.4,22.1,16.947552447552447,0.0,67.55944055944056,1007.441958041958
121,2018-05-10,11.7,16.9,13.92676056338028,0.0,56.394366197183096,1014.814084507042
122,2018-05-11,10.1,21.4,16.41241379310345,0.0,52.38620689655173,1015.1848275862068
123,2018-05-12,10.3,21.4,15.627972027972032,2.0,68.82517482517483,1010.6601398601398
124,2018-05-13,9.4,14.3,11.532867132867132,0.6,75.63636363636364,1013.8034965034964
125,2018-05-14,10.6,13.8,12.274125874125874,4.8,83.5034965034965,1013.395804195804
126,2018-05-15,11.7,19.8,14.890972222222224,0.0,82.08333333333333,1014.7631944444444
127,2018-05-16,11.2,21.2,15.018309859154932,0.0,75.52816901408451,1016.674647887324
128,2018-05-17,10.1,18.6,13.54265734265734,0.0,65.25874125874125,1020.6706293706292
129,2018-05-18,7.2,18.6,12.904964539007093,0.0,62.02127659574468,1020.8567375886524
130,2018-05-19,8.1,19.1,13.529577464788732,0.0,65.79577464788733,1019.9838028169016
131,2018-05-20,8.5,22.6,16.041666666666668,0.0,64.96527777777777,1017.259027777778
132,2018-05-21,13.7,23.5,18.68206896551724,8.8,64.49655172413793,1011.0551724137932
133,2018-05-22,14.8,24.2,18.335664335664337,5.2,71.65734265734265,1011.5755244755244
134,2018-05-23,12.7,20.1,16.565034965034965,0.0,79.53846153846153,1016.3076923076924
135,2018-05-24,15.3,24.3,19.647222222222226,0.0,70.75,1015.1236111111112
136,2018-05-25,15.7,26.2,19.736879432624114,15.4,72.39716312056737,1014.527659574468
137,2018-05-26,17.1,27.2,22.725874125874125,0.2,67.85314685314685,1013.2167832167833
138,2018-05-27,19.9,27.8,23.43591549295775,0.0,60.66197183098591,1013.2359154929576
139,2018-05-28,17.4,27.2,22.02097902097902,10.4,69.25874125874125,1013.7804195804194
140,2018-05-29,16.7,23.5,18.906944444444445,27.4,83.5625,1011.4583333333334
141,2018-05-30,16.1,25.9,20.781818181818185,0.0,73.6013986013986,1011.1580419580418
142,2018-05-31,18.4,24.9,21.146153846153847,0.0,72.62237762237763,1012.5398601398604
143,2018-06-01,16.4,20.9,18.44507042253521,0.2,81.44366197183099,1017.4669014084508
144,2018-06-02,16.6,24.9,20.13146853146853,0.2,67.76223776223776,1017.7209790209791
145,2018-06-03,17.0,25.9,21.810489510489507,0.0,63.24475524475525,1014.5678321678322
146,2018-06-04,17.8,25.3,21.521678321678323,0.0,72.67132867132867,1009.2972027972028
147,2018-06-05,15.8,21.7,18.220567375886525,8.8,86.41134751773049,1009.5957446808512
148,2018-06-06,14.3,23.2,18.16993006993007,11.8,87.68531468531468,1009.8328671328674
149,2018-06-07,17.3,24.4,21.19160839160839,0.0,71.66433566433567,1013.13006993007
150,2018-06-08,18.7,24.9,21.535211267605632,0.0,74.29577464788733,1012.2422535211268
151,2018-06-09,15.4,23.8,19.60763888888889,0.2,82.78472222222223,1011.3222222222222
152,2018-06-10,16.4,24.8,20.27552447552448,0.6,83.41258741258741,1009.7727272727273
153,2018-06-11,17.4,20.9,19.18434782608696,13.4,89.98260869565217,1007.4069565217392
154,2018-06-12,14.1,19.2,16.783908045977007,15.6,78.74712643678161,1011.9195402298848
155,2018-06-13,11.3,17.8,15.059574468085104,0.0,73.06382978723404,1016.6014184397162
156,2018-06-14,13.2,20.2,17.16153846153846,0.0,73.04195804195804,1015.1615384615384
157,2018-06-15,15.1,23.7,19.18098591549296,0.0,66.01408450704226,1015.1823943661972
158,2018-06-16,14.7,22.1,18.30839160839161,0.0,59.05594405594405,1015.2363636363636
159,2018-06-17,14.4,20.4,17.507746478873237,0.0,62.65492957746479,1018.4669014084508
160,2018-06-18,16.3,23.1,19.553846153846152,0.2,71.9020979020979,1020.8825174825176
161,2018-06-19,16.9,24.7,20.16805555555556,0.0,74.67361111111111,1023.2645833333332
162,2018-06-20,17.9,28.5,23.522916666666667,0.0,63.66666666666666,1019.3173611111112
163,2018-06-21,12.8,21.2,17.584027777777777,0.0,62.6875,1021.1069444444444
164,2018-06-22,11.7,20.7,16.3006993006993,0.0,49.99300699300699,1026.9237762237765
165,2018-06-23,10.9,21.6,16.9375,0.0,54.44444444444444,1025.5749999999998
166,2018-06-24,14.9,22.4,18.844055944055945,0.0,52.65734265734266,1021.5405594405594
167,2018-06-25,13.9,24.2,19.52269503546099,0.0,62.319148936170215,1022.1950354609928
168,2018-06-26,16.7,26.6,21.966666666666665,0.0,50.0,1021.2666666666668
169,2018-06-27,16.1,28.3,22.8993006993007,0.0,55.93006993006993,1018.9734265734268
170,2018-06-28,17.4,27.6,23.17412587412587,0.0,51.10489510489511,1016.7006993006992
171,2018-06-29,18.7,28.4,23.87986111111111,0.0,53.65277777777778,1013.5402777777776
172,2018-06-30,18.3,31.4,25.652447552447555,0.0,55.48951048951049,1009.402097902098
173,2018-07-01,23.3,32.4,27.586713286713284,0.0,48.3986013986014,1007.9307692307692
174,2018-07-02,21.4,29.7,25.392253521126765,0.0,46.485915492957744,1009.8197183098592
175,2018-07-03,20.7,29.5,25.379166666666663,0.0,57.59722222222222,1012.6986111111112
176,2018-07-04,20.8,28.9,24.755633802816902,0.0,58.6056338028169,1012.1570422535212
177,2018-07-05,20.1,26.3,22.624822695035466,0.0,65.0354609929078,1013.0921985815604
178,2018-07-06,18.3,28.7,23.997887323943665,0.0,52.19718309859155,1018.8190140845072
179,2018-07-07,20.6,30.3,26.024113475177305,0.0,48.60992907801418,1020.6737588652484
180,2018-07-08,21.4,29.6,25.832142857142856,0.0,48.892857142857146,1020.695
181,2018-07-09,17.6,25.8,22.192307692307693,0.0,53.82517482517483,1020.6958041958042
182,2018-07-10,16.0,21.7,18.765034965034964,0.0,61.16083916083916,1018.7951048951048
183,2018-07-11,15.1,21.6,18.449305555555554,0.0,68.10416666666667,1017.4791666666666
184,2018-07-12,15.5,24.9,20.54444444444444,0.0,62.93055555555556,1017.3555555555556
185,2018-07-13,17.9,27.9,22.563194444444445,0.0,62.020833333333336,1017.4770833333332
186,2018-07-14,18.3,29.7,24.295804195804195,0.0,54.81118881118881,1016.0384615384615
187,2018-07-15,20.9,30.8,25.941666666666663,0.2,45.625,1012.6277777777776
188,2018-07-16,19.8,29.5,24.558041958041954,0.0,48.02097902097902,1011.16993006993
189,2018-07-17,18.2,25.8,22.13146853146853,0.0,55.04195804195804,1015.1713286713284
190,2018-07-18,18.4,28.3,23.31180555555555,0.0,45.94444444444444,1015.6868055555556
191,2018-07-19,19.4,30.1,25.168750000000003,0.0,42.15972222222222,1014.3979166666666
192,2018-07-20,17.7,24.9,21.13986013986014,0.4,71.93706293706293,1011.5874125874124
193,2018-07-21,16.4,25.5,20.9972027972028,0.0,65.68531468531468,1011.8601398601398
194,2018-07-22,18.6,26.8,22.947552447552447,0.0,57.93006993006993,1014.3846153846152
195,2018-07-23,20.3,31.6,25.874825174825176,0.0,48.66433566433567,1015.1216783216784
196,2018-07-24,21.0,31.3,26.45208333333333,0.0,51.11805555555556,1011.7430555555557
197,2018-07-25,21.9,32.9,27.952554744525543,0.0,49.43795620437956,1012.4985401459852
198,2018-07-26,23.7,35.6,30.312676056338027,0.0,43.66901408450704,1010.2880281690144
199,2018-07-27,21.2,35.8,28.27676056338028,17.4,52.232394366197184,1007.1394366197184
200,2018-07-28,19.7,24.9,22.36853146853147,0.0,55.2027972027972,1009.1146853146852
201,2018-07-29,18.9,26.9,22.80774647887324,0.0,53.478873239436616,1010.911971830986
202,2018-07-30,19.7,27.5,23.755633802816902,0.0,65.12676056338029,1013.1457746478872
203,2018-07-31,20.6,27.5,23.972916666666663,0.0,57.84722222222222,1015.782638888889
204,2018-08-01,18.9,29.3,24.0972027972028,0.0,53.02097902097902,1018.1685314685312
205,2018-08-02,18.7,32.0,25.83611111111111,0.0,50.451388888888886,1019.7166666666668
206,2018-08-03,21.4,34.3,27.89652777777778,0.0,47.69444444444444,1017.9631944444444
207,2018-08-04,21.9,32.3,27.07816901408451,0.0,46.24647887323944,1017.8281690140846
208,2018-08-05,17.9,30.2,24.25804195804196,0.0,55.97902097902098,1018.1090909090908
209,2018-08-06,21.4,33.2,27.73819444444445,0.0,38.6875,1012.3201388888888
210,2018-08-07,22.7,35.8,29.08958333333333,0.0,42.145833333333336,1006.24375
211,2018-08-08,17.7,26.1,22.44125874125874,0.0,58.28671328671329,1011.0
212,2018-08-09,15.6,20.8,18.0,8.0,76.55244755244755,1011.616083916084
213,2018-08-10,13.8,21.9,18.27832167832168,0.0,60.25174825174825,1021.4566433566432
214,2018-08-11,15.6,24.7,20.12152777777778,0.0,58.68055555555556,1021.390972222222
215,2018-08-12,16.7,29.8,23.06503496503496,0.8,49.84615384615385,1011.1797202797204
216,2018-08-13,18.1,23.8,20.33239436619718,1.2,69.99295774647888,1008.0908450704228
217,2018-08-14,17.0,24.7,20.28439716312057,0.0,68.21985815602837,1016.0418439716312
218,2018-08-15,18.1,25.4,20.81666666666667,0.0,67.34027777777777,1018.4854166666668
219,2018-08-16,18.2,30.7,23.176388888888887,0.0,62.34722222222222,1013.4784722222222
220,2018-08-17,16.2,23.5,19.79492753623188,1.8,62.41304347826087,1017.9
221,2018-08-18,16.2,25.0,20.05664335664336,0.0,60.49650349650349,1021.7034965034964
222,2018-08-19,17.7,27.8,22.48671328671329,0.0,61.13986013986014,1020.1741258741256
223,2018-08-20,19.3,23.8,21.72447552447553,0.0,73.67832167832168,1019.202097902098
224,2018-08-21,19.9,26.4,22.7875,0.0,68.63888888888889,1018.1305555555556
225,2018-08-22,19.1,29.1,24.17412587412588,0.0,64.01398601398601,1015.3139860139858
226,2018-08-23,15.6,25.4,20.89225352112676,2.2,73.7394366197183,1012.9535211267604
227,2018-08-24,14.7,19.8,16.969014084507045,2.4,65.5774647887324,1014.3387323943664
228,2018-08-25,12.9,19.6,15.840559440559442,0.2,60.27272727272727,1014.3118881118882
229,2018-08-26,12.8,23.0,18.78380281690141,0.0,50.936619718309856,1013.032394366197
230,2018-08-27,16.6,22.3,19.112587412587416,0.8,69.33566433566433,1013.2447552447549
231,2018-08-28,14.7,26.9,21.09722222222222,0.0,56.02777777777778,1014.9041666666668
232,2018-08-29,16.7,21.7,18.265034965034964,20.0,79.79020979020979,1013.2748251748252
233,2018-08-30,15.2,20.1,17.927272727272726,0.0,71.91608391608392,1020.5517482517482
234,2018-08-31,15.6,22.1,18.452777777777776,0.0,60.90277777777778,1020.3354166666666
235,2018-09-01,14.1,22.3,18.399300699300703,0.0,50.32167832167832,1023.0636363636366
236,2018-09-02,13.5,23.7,18.960416666666667,0.0,50.6875,1020.2236111111112
237,2018-09-03,15.7,23.3,19.50283687943262,0.0,62.17021276595744,1016.004964539007
238,2018-09-04,17.2,19.8,18.393706293706288,0.0,83.20979020979021,1015.5748251748252
239,2018-09-05,18.1,25.5,20.46923076923077,0.0,78.83916083916084,1014.9706293706292
240,2018-09-06,15.4,20.6,18.257638888888888,0.0,77.03472222222223,1013.4166666666666
241,2018-09-07,14.6,20.2,16.93846153846154,0.2,62.15384615384615,1015.7643356643356
242,2018-09-08,13.6,23.1,18.705426356589147,0.0,53.83720930232558,1018.4217054263564
243,2018-09-09,14.7,28.6,21.619858156028368,0.0,52.54609929078014,1018.2042553191488
244,2018-09-10,15.7,24.4,19.92447552447552,0.0,63.93706293706294,1021.9083916083916
245,2018-09-11,15.9,28.6,22.808333333333334,0.0,53.35416666666666,1021.4708333333332
246,2018-09-12,17.7,26.9,21.579720279720284,0.0,63.91608391608391,1018.7132867132868
247,2018-09-13,15.0,17.4,16.345588235294116,1.0,83.34558823529412,1019.1794117647058
248,2018-09-14,12.8,20.6,16.439860139860137,0.0,65.52447552447552,1020.7454545454544
249,2018-09-15,13.0,21.6,17.317605633802817,0.0,62.267605633802816,1023.3795774647888
250,2018-09-16,14.3,23.9,19.445138888888888,0.0,52.375,1019.3652777777778
251,2018-09-17,14.8,28.7,22.08321678321678,0.0,47.76223776223776,1014.6930069930072
252,2018-09-18,18.0,23.2,20.58098591549296,0.2,72.1056338028169,1012.901408450704
253,2018-09-19,17.7,24.2,20.849295774647885,0.0,67.3169014084507,1016.9711267605634
254,2018-09-20,15.4,24.4,20.545,0.0,66.77857142857142,1014.4085714285716
255,2018-09-21,13.4,19.8,16.540277777777778,3.8,61.85416666666666,1013.3111111111112
256,2018-09-22,12.6,19.6,15.623239436619718,0.4,65.42957746478874,1018.7232394366198
257,2018-09-23,10.7,21.9,17.085106382978722,10.6,84.36170212765957,1015.4588652482272
258,2018-09-24,9.6,16.4,12.707638888888887,0.0,64.375,1033.413888888889
259,2018-09-25,8.5,16.7,12.94097222222222,0.0,59.73611111111112,1034.5159722222222
260,2018-09-26,8.9,20.8,15.368750000000002,0.0,50.29861111111112,1031.0895833333334
261,2018-09-27,11.7,25.3,18.59090909090909,0.0,53.80419580419581,1025.1
262,2018-09-28,10.6,18.4,15.468055555555557,0.0,70.34722222222223,1023.31875
263,2018-09-29,8.8,17.4,12.916666666666664,0.0,58.04166666666666,1022.9958333333336
264,2018-09-30,8.6,17.4,12.750694444444443,0.0,61.520833333333336,1017.31875
265,2018-10-01,10.2,15.3,12.382269503546098,0.0,59.90070921985816,1022.2475177304964
266,2018-10-02,10.5,15.8,13.072916666666666,0.2,79.3125,1023.0354166666664
267,2018-10-03,15.0,18.4,16.446099290780143,0.0,75.8581560283688,1025.7248226950355
268,2018-10-04,13.1,20.8,16.740277777777777,0.0,63.5,1023.5305555555552
269,2018-10-05,11.0,24.7,18.031205673758866,0.0,60.5177304964539,1014.5248226950356
270,2018-10-06,13.1,22.4,17.644755244755242,0.0,66.76223776223776,1007.0461538461536
271,2018-10-07,11.6,16.8,13.716083916083916,1.4,84.25174825174825,1015.546153846154
272,2018-10-08,10.0,18.2,13.984722222222222,0.0,64.00694444444444,1020.4743055555556
273,2018-10-09,11.4,22.8,16.837323943661968,0.0,67.0774647887324,1018.0070422535211
274,2018-10-10,13.6,24.7,19.11468531468531,0.0,67.47552447552448,1010.47972027972
275,2018-10-11,15.9,25.4,19.7986013986014,1.6,68.45454545454545,1007.5916083916084
276,2018-10-12,15.8,24.9,20.021678321678323,0.0,76.2937062937063,1015.4713286713286
277,2018-10-13,16.7,25.4,20.941258741258743,0.0,68.26573426573427,1013.2454545454544
278,2018-10-14,16.3,25.7,20.846853146853142,0.0,60.18181818181818,1004.572027972028
279,2018-10-15,18.2,25.4,21.434965034965035,0.0,48.51748251748252,1008.7363636363636
280,2018-10-16,17.3,24.5,20.50909090909091,0.0,54.27972027972028,1015.4153846153844
281,2018-10-17,15.1,20.6,17.512587412587415,0.0,72.7972027972028,1017.067132867133
282,2018-10-18,12.2,19.3,15.023611111111112,0.0,78.01388888888889,1019.551388888889
283,2018-10-19,10.9,17.4,13.572727272727274,0.0,81.63636363636364,1021.9244755244756
284,2018-10-20,9.1,16.4,12.46875,0.0,76.1875,1027.8020833333333
285,2018-10-21,8.1,17.6,12.97692307692308,0.0,70.11888111888112,1025.725874125874
286,2018-10-22,9.6,14.1,12.51549295774648,0.0,80.48591549295774,1029.6697183098595
287,2018-10-23,7.8,16.9,12.004225352112671,0.0,72.84507042253522,1030.0345070422534
288,2018-10-24,11.9,15.8,14.143661971830984,0.0,85.63380281690141,1026.7732394366196
289,2018-10-25,10.8,15.5,13.475524475524477,0.0,77.18881118881119,1019.8818181818182
290,2018-10-26,8.2,13.7,10.888732394366196,0.6,76.67605633802818,1011.0070422535211
291,2018-10-27,5.6,9.8,7.365034965034967,0.0,76.86713286713287,1009.0678321678322
292,2018-10-28,4.2,7.1,5.6218309859154925,0.0,78.13380281690141,1007.8535211267604
293,2018-10-29,3.0,5.3,4.405633802816902,2.8,81.90140845070422,998.3330985915492
294,2018-10-30,3.3,10.6,7.105555555555556,13.4,81.25694444444444,996.1958333333334
295,2018-10-31,5.1,11.6,8.375,1.8,85.14583333333333,1007.03125
296,2018-11-01,9.4,11.9,10.641258741258744,1.6,83.27972027972028,1007.8265734265736
297,2018-11-02,7.2,11.8,9.32237762237762,0.0,73.2867132867133,1022.5370629370632
298,2018-11-03,5.5,11.1,8.109285714285713,0.0,69.12142857142857,1024.7414285714283
299,2018-11-04,4.8,11.8,8.677777777777777,0.0,84.45833333333333,1011.4236111111112
300,2018-11-05,10.1,18.9,14.115972222222222,0.0,74.73611111111111,1003.284027777778
301,2018-11-06,9.9,18.7,14.7,0.0,71.14788732394366,1002.0359154929577
302,2018-11-07,9.7,13.3,11.216666666666669,4.2,83.1875,1004.953472222222
303,2018-11-08,7.1,12.8,9.727777777777778,0.0,82.90972222222223,1016.0756944444444
304,2018-11-09,7.4,14.5,10.669444444444444,0.0,83.36805555555556,1008.6166666666666